Le nostre stazioni meteo in Italia

Pubblicità
Il mio iltempo24.it
Pian Rosa, Italia (16052): Temperatura & dewpoint: 02.07.2020 11:00:00 - 08.07.2020 11:00:00 (CEST)Pian Rosa, Italia (16052): velocità del vento & gusts: 02.07.2020 11:00:00 - 08.07.2020 11:00:00 (CEST)Pian Rosa, Italia (16052): direzione del vento: 02.07.2020 11:00:00 - 08.07.2020 11:00:00 (CEST)Pian Rosa, Italia (16052): visibility: 02.07.2020 11:00:00 - 08.07.2020 11:00:00 (CEST)Pian Rosa, Italia (16052): ore di luce: 02.07.2020 11:00:00 - 08.07.2020 11:00:00 (CEST)
Data & Tempo tt [°C] td [°C] ff [km/h] ff [kn] fx [km/h] fx [kn] dd vv [km] sd [min]
08.07.2020 11:00:00 5,0 -1,5 21 11 - - NE 80 60
08.07.2020 10:00:00 4,8 -0,6 22 12 - - ENE 80 60
08.07.2020 09:00:00 4,4 -1,4 22 12 - - NE 80 60
08.07.2020 08:00:00 4,4 -1,4 18 10 - - ENE 80 24
08.07.2020 07:00:00 3,0 -2,7 28 15 - - NE 80 0
08.07.2020 06:00:00 3,0 -5,6 34 18 - - NE 80 0
08.07.2020 05:00:00 2,4 -3,7 26 14 - - NE 10 0
08.07.2020 04:00:00 3,4 -3,6 28 15 - - NE 10 0
08.07.2020 03:00:00 2,8 -4,4 21 11 - - NE 10 0
08.07.2020 02:00:00 3,2 -4,5 21 11 - - NE 10 0
08.07.2020 01:00:00 3,2 -4,7 18 10 - - NE 10 0
08.07.2020 00:00:00 3,0 -5,6 34 18 - - NE 10 0
07.07.2020 23:00:00 3,2 -5,5 13 7 - - NE 10 0
07.07.2020 22:00:00 3,8 -6,2 24 13 - - NE 80 0
07.07.2020 21:00:00 4,2 -7,0 13 7 - - ENE 80 3
07.07.2020 20:00:00 4,8 -7,0 9 5 - - ENE 80 60
07.07.2020 19:00:00 5,0 -4,8 13 7 - - NE 80 48
07.07.2020 18:00:00 4,6 -3,4 11 6 - - NE 80 60
07.07.2020 17:00:00 5,2 0,2 4 2 - - NNO 80 60
07.07.2020 16:00:00 6,0 4,7 5 3 - - SO 80 60
07.07.2020 15:00:00 4,0 -6,6 11 6 - - NE 80 60
07.07.2020 14:00:00 3,8 -13,0 16 9 - - NE 80 60
07.07.2020 13:00:00 3,8 -14,4 4 2 - - NO 80 60
07.07.2020 12:00:00 4,0 -24,9 13 7 - - NE 80 60
07.07.2020 11:00:00 5,0 -24,1 9 5 - - NE 80 60
07.07.2020 10:00:00 5,4 -23,8 2 1 - - N 80 60
07.07.2020 09:00:00 1,6 -26,8 8 4 - - O 80 60
07.07.2020 08:00:00 4,0 -24,9 4 2 - - NO 80 30
07.07.2020 07:00:00 2,8 -25,8 21 11 - - ENE 80 -
07.07.2020 06:00:00 2,0 -26,5 22 12 - - ENE 50 -
07.07.2020 05:00:00 -1,4 -19,9 31 17 - - ENE 20 -
07.07.2020 04:00:00 -2,0 -17,3 42 23 - - NE 10 -
07.07.2020 03:00:00 -1,6 -21,6 52 28 - - NE 10 -
07.07.2020 02:00:00 -0,6 -22,0 54 29 - - NE 10 -
07.07.2020 01:00:00 0,2 -20,1 57 31 - - NNE 10 -
07.07.2020 00:00:00 -2,0 -5,0 46 25 - - NE 10 -
06.07.2020 23:00:00 -1,2 -3,2 44 24 - - NE 10 -
06.07.2020 22:00:00 -2,0 -2,8 48 26 - - NE 10 -
06.07.2020 21:00:00 -0,2 -1,0 42 23 - - NNE 60 42
06.07.2020 20:00:00 1,4 -1,0 41 22 - - NNE 80 60
06.07.2020 19:00:00 2,0 0,2 28 15 - - NNE 80 60
06.07.2020 18:00:00 3,6 0,0 16 9 - - NE 80 60
06.07.2020 17:00:00 5,1 -2,5 13 7 - - N 80 60
06.07.2020 16:00:00 8,4 -2,0 8 4 - - NO 80 60
06.07.2020 15:00:00 9,0 -0,9 5 3 - - O 80 60
06.07.2020 14:00:00 9,2 0,6 8 4 - - SSO 80 60
06.07.2020 13:00:00 9,0 1,7 9 5 - - SO 80 60
06.07.2020 12:00:00 8,6 -15,8 4 2 27 15 N 80 60
06.07.2020 11:00:00 9,0 -19,9 4 2 - - N 80 60
06.07.2020 10:00:00 8,4 -20,4 4 2 - - N 80 60
06.07.2020 09:00:00 7,4 -22,3 15 8 - - NNO 50 60
06.07.2020 08:00:00 7,6 -22,1 15 8 - - NE 50 30
06.07.2020 07:00:00 6,6 -22,9 18 10 - - NE 50 -
06.07.2020 06:00:00 5,4 -23,8 21 11 - - NE 50 -
06.07.2020 05:00:00 6,2 -23,2 18 10 - - ENE 10 -
06.07.2020 04:00:00 6,2 -23,2 22 12 - - ENE 10 -
06.07.2020 03:00:00 6,2 -23,2 28 15 - - ENE 10 -
06.07.2020 02:00:00 6,0 -23,4 15 8 - - ENE 10 -
06.07.2020 01:00:00 5,6 -19,0 0 0 - - N 10 -
06.07.2020 00:00:00 5,4 -21,8 22 12 - - ENE 10 -
05.07.2020 23:00:00 6,4 -18,4 22 12 - - E 10 -
05.07.2020 22:00:00 6,0 -5,0 18 10 - - NE 20 -
05.07.2020 21:00:00 5,0 4,0 13 7 - - NE 50 48
05.07.2020 20:00:00 5,0 4,0 18 10 - - NE 50 60
05.07.2020 19:00:00 6,0 5,0 4 2 - - N 50 60
05.07.2020 18:00:00 6,2 5,2 15 8 - - NE 50 60
05.07.2020 17:00:00 7,2 6,0 4 2 - - N 50 60
05.07.2020 16:00:00 7,2 4,7 8 4 - - NE 50 60
05.07.2020 15:00:00 7,2 5,0 15 8 - - NE 50 60
05.07.2020 14:00:00 6,2 3,7 21 11 - - NE 50 60
05.07.2020 13:00:00 5,0 2,4 21 11 - - NE 60 60
05.07.2020 12:00:00 5,0 -30,0 18 10 - - NE 60 60
05.07.2020 11:00:00 5,0 -24,1 21 11 - - NE 60 60
05.07.2020 10:00:00 5,0 -3,8 22 12 - - NE 60 60
05.07.2020 09:00:00 3,2 1,2 26 14 - - NE 60 60
05.07.2020 08:00:00 3,0 0,4 26 14 - - NE 60 30
05.07.2020 07:00:00 2,6 -0,5 26 14 - - NE 50 -
05.07.2020 06:00:00 2,0 -1,1 26 14 - - NE 50 -
05.07.2020 05:00:00 2,2 -2,7 29 16 - - NE 30 -
05.07.2020 04:00:00 1,8 -3,1 29 16 - - NE 20 -
05.07.2020 03:00:00 1,8 -2,0 26 14 - - NE 20 -
05.07.2020 02:00:00 2,0 -2,1 28 15 - - ENE 10 -
05.07.2020 01:00:00 2,4 -2,9 26 14 - - NE 10 -
05.07.2020 00:00:00 2,2 1,0 26 14 - - NE 10 -
04.07.2020 23:00:00 1,6 0,4 28 15 - - NE 10 -
04.07.2020 22:00:00 1,8 0,6 29 16 - - NE 50 -
04.07.2020 21:00:00 2,2 1,0 28 15 - - NE 20 48
04.07.2020 20:00:00 2,6 1,4 24 13 - - NE 30 60
04.07.2020 19:00:00 2,4 1,2 31 17 - - NE 30 48
04.07.2020 18:00:00 3,2 2,0 28 15 - - NE 30 60
04.07.2020 17:00:00 3,2 2,0 16 9 - - NNE 10 60
04.07.2020 16:00:00 4,2 0,5 9 5 - - NNE 3,0 60
04.07.2020 15:00:00 3,8 -4,9 8 4 - - NNE 20 60
04.07.2020 14:00:00 2,8 -7,4 15 8 - - NE 60 60
04.07.2020 13:00:00 2,2 -2,7 15 8 - - NE 10 60
04.07.2020 12:00:00 1,6 -2,7 21 11 - - NE 30 60
04.07.2020 11:00:00 1,6 -4,3 16 9 - - NE 50 60
04.07.2020 10:00:00 1,6 -4,3 22 12 - - NE 50 60
04.07.2020 09:00:00 1,4 -2,7 21 11 - - NE 50 60
04.07.2020 08:00:00 1,2 0,0 4 2 - - N 50 18
04.07.2020 07:00:00 -0,2 -1,3 11 6 - - OSO 50 -
04.07.2020 06:00:00 -1,0 -2,1 8 4 - - O 50 -
04.07.2020 05:00:00 -1,2 -2,5 9 5 - - SSO 10 -
04.07.2020 04:00:00 -1,8 -3,1 4 2 - - N 10 -
04.07.2020 03:00:00 -1,8 -3,1 5 3 - - SO 10 -
04.07.2020 02:00:00 -2,0 -3,3 11 6 - - SO 10 -
04.07.2020 01:00:00 -2,6 -3,9 16 9 - - ENE 0,1 -
04.07.2020 00:00:00 -2,4 -3,7 21 11 - - ENE 0,1 -
03.07.2020 23:00:00 -1,6 -2,9 16 9 - - ENE 0,1 -
03.07.2020 22:00:00 -1,0 -2,1 18 10 - - ENE 0,1 -
03.07.2020 21:00:00 -0,8 -1,9 21 11 - - ENE 0,3 0
03.07.2020 20:00:00 -0,6 -1,7 21 11 - - NE 0,1 36
03.07.2020 19:00:00 -1,0 -2,1 28 15 - - NE 0,3 36
03.07.2020 18:00:00 -1,0 -2,1 24 13 - - NE 0,8 0
03.07.2020 17:00:00 -0,6 -1,7 24 13 - - NE 0,3 0
03.07.2020 16:00:00 0,6 -0,5 24 13 - - E 0,3 0
03.07.2020 15:00:00 0,0 -1,1 11 6 - - NE 0,3 0
03.07.2020 14:00:00 1,6 0,4 9 5 - - NE 0,8 0
03.07.2020 13:00:00 4,6 3,4 4 2 - - N 0,8 12
03.07.2020 12:00:00 4,0 2,8 4 2 - - N 0,6 0
03.07.2020 11:00:00 5,0 2,5 4 2 - - N 0,3 36
03.07.2020 10:00:00 5,4 2,2 4 2 - - N 30 24
03.07.2020 09:00:00 4,2 1,9 8 4 - - SSO 30 60
03.07.2020 08:00:00 2,4 1,2 4 2 - - N 40 30
03.07.2020 07:00:00 -1,0 -2,1 8 4 - - SE 30 0
03.07.2020 06:00:00 -1,8 -2,8 16 9 - - ENE 20 -
03.07.2020 05:00:00 -1,4 -2,5 16 9 - - ENE 10 -
03.07.2020 04:00:00 -0,8 -1,9 24 13 - - NE 10 -
03.07.2020 03:00:00 -0,2 -1,3 11 6 - - ENE 10 -
03.07.2020 02:00:00 -0,6 -1,7 4 2 - - N 10 -
03.07.2020 01:00:00 -0,6 -1,7 18 10 - - NE 10 -
03.07.2020 00:00:00 -0,4 -1,4 29 16 - - NE 10 -
02.07.2020 23:00:00 -0,4 -1,4 39 21 - - NE 10 -
02.07.2020 22:00:00 0,6 -0,4 24 13 - - NE 30 0
02.07.2020 21:00:00 0,8 -0,2 26 14 - - NNE 20 -
02.07.2020 20:00:00 3,2 2,2 4 2 - - N 10 0
02.07.2020 19:00:00 5,2 4,2 4 2 - - N 20 18
02.07.2020 18:00:00 6,2 2,7 18 10 - - SO 30 60
02.07.2020 17:00:00 5,8 4,4 21 11 - - SSO 30 48
02.07.2020 16:00:00 6,8 5,6 16 9 - - SO 30 24
02.07.2020 15:00:00 7,2 5,2 4 2 - - N 20 24
02.07.2020 14:00:00 8,0 3,5 4 2 - - N 20 60
02.07.2020 13:00:00 8,2 4,8 0 0 - - N 20 60
02.07.2020 12:00:00 7,2 3,4 9 5 - - OSO 20 60
02.07.2020 11:00:00 6,8 1,7 9 5 - - OSO 20 60

tt = Temperatura
td = dewpoint
ff = velocità del vento
fx = gusts
dd = direzione del vento
vv = visibility
sd = ore di luce

Stazioni seguenti

WeatherPro
AMSI
MeteoEarth